Location: Altamira
(10.5079°N, 66.8544°W)
Time: 17:54:27
(UTC+00:00)

COSMOS 2455 - Pass Details

Date: 13 December 2025
Orbit: 898 x 910 km, 67.1° (Epoch: 14 January)

Event Time Altitude Azimuth Distance (km) Brightness Sun altitude
Rises 22:29:02 0° 213° (SSW) 3,512 7.0 -5.7°
Reaches altitude 10° 22:31:38 10° 219° (SW) 2,573 6.4 -6.3°
Maximum altitude 22:37:18 45° 291° (WNW) 1,210 4.0 -7.6°
Drops below altitude 10° 22:43:00 10° 3° (N) 2,580 5.0 -8.9°
Sets 22:45:37 0° 9° (N) 3,522 5.6 -9.5°
